User: anonymous
Location: Phoenix
(33.4480°N, 112.0730°W)
Time: 18:50:24
(UTC-07:00)
Language:

HST - Orbit

View from above orbital plane
View from above orbital plane
View from above satellite
View from above satellite

Ground track
Ground track

The orbit data is extracted from the following two-line orbital elements,

1 20580U 90037B   14243.44458582  .00001887  00000-0  11570-3 0  1003
2 20580 028.4700 262.3300 0003215 015.1512 141.8807 15.05667478136075
Epoch (UTC): 31 August 2014 10:40:12
Eccentricity: 0.0003215
inclination: 28.4700°
perigee height: 547 km
apogee height: 551 km
right ascension of ascending node: 262.3300°
argument of perigee: 15.1512°
revolutions per day: 15.05667478
mean anomaly at epoch: 141.8807°
orbit number at epoch: 13607

The dashed part of the orbit path shows where the satellite is in the earth's shadow,  

DLR